Tracking 20228 objects as of 17-Jan-2020
HD Live streaming from Space Station
objects crossing your sky now

COSMOS 1884 (GLONASS)

Track COSMOS 1884 (GLONASS) now!
COSMOS 1884 (GLONASS) is classified as:


NORAD ID: 18356
Int'l Code: 1987-079B
Perigee: 19,089.0 km
Apogee: 19,185.0 km
Inclination: 65.9 °
Period: 675.7 minutes
Semi major axis: 25507 km
RCS: 0.8552 m2 (medium)
Launch date: September 16, 1987
Source: Commonwealth of Independent States (former USSR) (CIS)
Launch site: TYURATAM MISSILE AND SPACE COMPLEX (TTMTR)
aabbcc
Your satellite tracking list
Your tracking list is empty




NASA's NSSDC Master Catalog

Two Line Element Set (TLE):
1 18356U 87079B   20012.35257491 -.00000018 +00000-0 +00000-0 0  9995
2 18356 065.8663 037.3375 0018811 222.2670 314.8308 02.13102361251630
Source of the keplerian elements: AFSPC